Location: Villarejo del Valle
(40.2864°N, 4.9967°W)
Time: 12:38:23
(UTC+00:00)

Daily predictions for brighter satellites

Satellite Brightness Start Highest point End
(mag) Time Altitude Azimuth Time Altitude Azimuth Time Altitude Azimuth
ATLAS 2AS CENTAUR R/B 4.4 17:23:00 10° N 17:26:03 13° NNE 17:29:00 10° NE
Meteor 1-31 Rocket 3.2 17:24:09 10° SE 17:27:33 36° ENE 17:30:59 10° N
Cosmos 724 4.5 17:21:21 10° SSW 17:27:33 84° ESE 17:33:44 10° NNE
ARGOS 4.3 17:23:11 10° S 17:28:25 50° W 17:33:41 10° NNW
CZ-2C R/B 2.1 17:27:29 10° WSW 17:29:33 23° S 17:31:38 10° SE
BREEZE M DEB (TANK) 4.4 17:27:12 10° W 17:29:47 30° SSW 17:35:15 10° SSE
Lacrosse 4 Rocket 3.3 17:30:13 10° NNE 17:32:16 13° NE 17:34:17 10° ENE
SL-16 R/B 2.2 17:28:49 10° NNW 17:34:31 73° ENE 17:40:09 10° SSE
Cosmos 1544 2.7 17:36:27 10° N 17:39:43 85° E 17:42:57 10° S
Tiangong -1.0 17:41:59 10° W 17:45:00 43° SSW 17:48:01 10° SE
ERS-2 4.2 17:42:39 10° SSW 17:45:09 25° W 17:47:39 10° NW
Cosmos 1812 Rocket 4.4 17:43:50 10° SSE 17:47:32 29° E 17:51:17 10° NNE
Cosmos 1943 4.0 17:43:26 10° N 17:48:19 29° ENE 17:53:11 10° ESE
Cosmos 1076 Rocket 3.5 17:44:16 10° N 17:48:39 80° E 17:52:59 10° S
Cosmos 1269 Rocket 4.0 17:43:37 10° NNW 17:48:55 81° ENE 17:54:12 10° SSE
Cosmos 614 Rocket 4.3 17:45:42 10° NNW 17:50:54 71° WSW 17:56:02 10° S
Radarsat Rocket 4.4 17:46:18 10° SE 17:51:31 36° ENE 17:56:53 10° N
ADEOS 4.5 17:51:52 10° ESE 17:56:06 26° ENE 18:00:20 10° N
Cosmos 2219 4.3 17:51:52 10° SW 17:57:10 42° WNW 18:02:30 10° N
SL-08 R/B 4.2 17:54:03 11° NE 17:57:39 27° E 18:01:32 10° SSE
USA 308 0.4 17:55:51 10° NW 17:57:45 86° NE 17:58:17 36° SE
BREEZE-M DEB (TANK) 4.4 17:55:30 10° S 17:59:07 31° ESE 18:05:54 15° ENE
Cosmos 44 3.4 17:54:55 10° NNW 18:00:17 66° NE 18:05:21 10° SE
Cosmos 1602 3.6 17:56:42 10° N 18:00:22 56° E 18:04:02 10° SSE
Hubble Space Telescope 3.4 18:00:31 10° SW 18:02:08 12° S 18:03:44 10° SSE
USA 307 4.0 17:59:06 10° NNW 18:02:09 21° NNE 18:03:12 19° NE
NOSS 3-4 (A) 4.1 17:55:52 10° NW 18:03:03 81° WSW 18:11:15 10° SSE
NOSS 3-4 (C) 4.1 17:56:01 10° NW 18:03:08 81° WSW 18:11:14 10° SSE
Cosmos 1666 2.3 18:01:06 10° N 18:04:38 83° E 18:08:09 10° S
ISS -2.9 18:04:24 10° NW 18:07:28 32° NNE 18:08:24 27° ENE
USA 234 3.6 18:03:40 12° NE 18:09:49 64° NW 18:16:15 10° WSW
Cosmos 2344 3.6 18:02:05 10° SSW 18:09:55 62° ESE 18:16:07 14° NE
AQUARIUS 4.4 18:05:39 10° S 18:10:06 73° WSW 18:14:34 10° NNW
BREEZE-M DEB (TANK) 3.3 18:09:12 10° NW 18:10:31 15° N 18:10:54 15° N
COSMO-SKYMED 1 2.6 18:12:13 10° NNE 18:16:32 59° E 18:20:48 10° S
Cosmos 2026 Rocket 4.2 18:13:58 10° SSE 18:19:50 46° E 18:25:49 10° NNE
Lacrosse 5 2.6 18:18:49 10° S 18:23:23 35° SE 18:24:56 29° E
Cosmos 1933 3.7 18:21:09 10° SSE 18:24:51 38° E 18:25:25 36° ENE
Cosmos 2195 Rocket 4.5 18:19:43 10° S 18:25:57 63° E 18:32:09 10° NNE
Helios 1A 3.3 18:22:00 10° N 18:26:08 64° WNW 18:30:12 10° SSW
CBERS 1 LM4 rocket 4.2 18:22:02 10° SSE 18:26:53 75° ENE 18:31:38 10° N
SME Rocket 4.5 18:26:34 16° ESE 18:30:27 38° ENE 18:37:22 10° N
Cosmos 1140 Rocket 3.4 18:27:40 10° NNW 18:32:50 65° ENE 18:37:55 10° SSE
Cosmos 1092 Rocket 3.9 18:27:05 10° S 18:33:06 62° E 18:39:09 10° NNE
Cosmos-2242 3.6 18:31:52 10° SSW 18:36:09 58° W 18:40:26 10° N
Nadezhda 4 Rocket 4.3 18:30:27 10° SSW 18:36:34 66° W 18:42:40 10° N
USA 276 3.6 18:37:30 10° W 18:39:05 23° NW 18:39:05 23° NW
ATLAS CENTAUR R/B 3.1 18:38:07 10° NW 18:43:05 65° NE 18:52:07 12° SE
Meteor 1-20 Rocket 4.3 18:38:45 10° NNW 18:44:19 79° W 18:49:58 10° S
NOAA 6 4.1 18:39:28 10° S 18:44:37 78° WSW 18:49:46 10° NNW
Cosmos 2227 4.3 18:40:07 10° SSW 18:45:52 76° WNW 18:50:08 19° NNE
Cosmos 2221 3.7 18:42:20 10° SSE 18:44:28 26° SE 18:44:28 26° SE
Cosmos 2263 Rocket 3.8 18:43:20 10° WSW 18:48:12 31° WNW 18:53:08 10° N
Cosmos 1844 Rocket 2.7 18:43:55 10° S 18:49:19 56° ESE 18:50:37 45° ENE
SL-8 R/B 3.8 18:44:46 10° NW 18:49:28 54° NNE 18:49:55 52° NE
Meteor 1-5 Rocket 4.4 18:44:45 10° N 18:50:13 47° ENE 18:55:49 10° SSE
Cosmos 1812 4.3 18:50:03 10° SW 18:53:23 32° WNW 18:56:44 10° NNW
YAOGAN 3 4.4 18:51:09 10° SSE 18:55:27 73° ENE 18:59:46 10° N
COSMOS 2455 4.4 18:53:38 10° SSE 18:55:50 19° SE 18:55:50 19° SE
H-2A R/B 3.6 18:56:23 10° SW 18:59:36 26° S 19:02:57 19° SE
APEX 4.3 18:58:15 10° SW 19:00:50 31° WNW 19:00:50 31° WNW
USA 305 4.3 18:58:04 10° NW 18:59:56 24° NNW 18:59:56 24° NNW
CZ-2C R/B 3.5 19:03:00 10° SW 19:03:05 10° SW 19:03:05 10° SW
Cosmos 1603 3.5 18:59:42 10° NNW 19:05:25 82° ENE 19:08:18 30° SSE
Cosmos 2251 Rocket 3.5 19:00:04 10° NNW 19:05:25 82° WSW 19:10:47 10° SSE
NOAA 15 4.4 19:04:18 10° SSE 19:09:35 78° ENE 19:14:54 10° N
Cosmos 407 Rocket 3.4 19:04:37 10° NNW 19:09:47 80° WSW 19:14:09 14° SSE
Lacrosse 4 Rocket 1.7 19:06:54 10° NNW 19:10:40 63° WNW 19:10:40 63° WNW
Cosmos 1782 3.8 19:08:19 10° SSW 19:12:03 43° W 19:12:53 37° NW
Cosmos 2056 Rocket 3.4 19:08:31 10° S 19:13:37 74° SE 19:13:37 74° SE
ATLAS 2AS CENTAUR R/B 3.4 19:12:42 10° NNW 19:17:44 36° NNE 19:17:44 36° NNE
Cosmos 1818 4.2 19:14:19 10° SW 19:19:37 53° NW 19:21:04 41° N
Timation 2 Rocket 3.9 19:23:27 10° SSW 19:29:25 76° WNW 19:30:11 66° N
Cosmos 1241 Rocket 4.3 19:23:49 10° SSW 19:30:02 79° SE 19:30:02 79° SE
CZ-4B DEB 4.2 19:25:59 10° S 19:31:31 79° WSW 19:37:05 10° NNW
Cosmos 1943 4.4 19:27:12 10° NW 19:32:25 40° WSW 19:37:38 10° S
Cosmos 1371 Rocket 4.5 19:32:39 10° SSW 19:37:06 58° WSW 19:37:06 58° WSW
ISS -0.3 19:41:09 10° WNW 19:41:20 11° WNW 19:41:20 11° WNW
Cosmos 1844 4.4 19:46:03 10° SW 19:51:21 52° WNW 19:51:21 52° WNW
Lacrosse 5 3.7 20:01:31 10° WSW 20:04:10 27° W 20:04:10 27° W
